Flag Weather past 2 weeks in Mashhad, Iran

Now
50 °F

Partly sunny.


Feels Like: 50 °F
Forecast: 47 / 66 °F
Wind: No wind

Location: Mashhad Airport

Current Time: Nov 1, 2014 at 8:25:24 AM

Latest Report: Nov 1, 2014 at 8:00 AM


Visibility: 5 mi

Pressure: 30.01 "Hg

Humidity: 35%

Dew point: 23 °F

Location of MashhadLocation

Historic Weather in Mashhad — Graph

°F

Mashhad temperature yesterday

Maximum temperature yesterday: 63 °F (at 2:30 PM)
Minimum temperature yesterday: 32 °F (at 4:30 AM)
Average temperature yesterday: 48 °F

Past Weeks' High & Low Weather Summary

 TemperatureHumidityPressure
High82 °F (Oct 20, 12:30 PM)100% (Oct 23, 3:54 AM)30.48 "Hg (Oct 23, 3:54 AM)
Low30 °F (Oct 30, 5:00 AM)13% (Oct 30, 3:00 PM)29.80 "Hg (Oct 18, 12:59 PM)
Average55 °F52%30.12 "Hg
* Reported Oct 17 7:00 AM — Nov 1 7:00 AM, Mashhad, Weather by CustomWeather, © 2014

Note: Actual official high and low records may vary slightly from our data, if they occured in-between our weather recording intervals... More about our weather records

Advertising

Mashhad weather history for previous 24 hours

 ConditionsComfort  
Time TempWeatherWind HumidityBarometerVisibility
7:00 AM
Nov 1
46 °FPartly sunny.5 mph43%29.98 "Hg5 mi
6:30 AM43 °FPartly sunny.No wind46%29.98 "Hg5 mi
6:00 AM45 °FPassing clouds.No wind39%29.98 "Hg5 mi
5:30 AM45 °FClear.5 mph39%29.98 "Hg5 mi
5:00 AM45 °FClear.7 mph42%29.98 "Hg5 mi
4:30 AM45 °FClear.5 mph42%30.01 "Hg5 mi
4:00 AM46 °FClear.5 mph40%30.01 "Hg5 mi
3:30 AM46 °FClear.5 mph37%29.98 "Hg10 mi
3:00 AM46 °FPassing clouds.5 mph37%30.01 "HgN/A
2:30 AM48 °FPassing clouds.5 mph32%30.01 "HgN/A
2:00 AM50 °FPassing clouds.5 mph30%30.01 "HgN/A
1:30 AM50 °FPassing clouds.7 mph30%30.01 "HgN/A
1:00 AM50 °FPassing clouds.5 mph32%30.04 "HgN/A
12:30 AM50 °FPassing clouds.5 mph30%30.04 "HgN/A
12:00 AM50 °FPassing clouds.5 mph32%30.04 "HgN/A
11:30 PM
Oct 31
50 °FClear.5 mph30%30.04 "Hg10 mi
11:00 PM50 °FClear.7 mph28%30.04 "Hg10 mi
10:30 PM50 °FClear.5 mph28%30.07 "Hg10 mi
10:00 PM50 °FClear.7 mph25%30.07 "Hg10 mi
9:30 PM52 °FClear.5 mph22%30.07 "Hg10 mi
8:55 PM52 °FClear.7 mph22%30.07 "Hg10 mi
8:30 PM52 °FClear.7 mph22%30.07 "Hg10 mi
8:00 PM52 °FClear.7 mph24%30.07 "Hg10 mi
7:30 PM52 °FClear.7 mph24%30.07 "Hg10 mi
7:00 PM52 °FClear.5 mph24%30.07 "Hg10 mi
6:30 PM52 °FClear.5 mph24%30.07 "Hg10 mi
6:00 PM54 °FClear.5 mph22%30.07 "Hg10 mi
5:30 PM55 °FClear.5 mph19%30.07 "Hg10 mi
4:55 PM57 °FSunny.5 mph18%30.07 "Hg10 mi
4:30 PM59 °FSunny.5 mph17%30.07 "Hg10 mi
4:00 PM61 °FSunny.5 mph15%30.07 "Hg10 mi
3:30 PM61 °FSunny.5 mph16%30.07 "Hg10 mi
3:00 PM63 °FSunny.5 mph14%30.07 "Hg10 mi
2:30 PM63 °FSunny.No wind14%30.07 "Hg10 mi
1:59 PM61 °FSunny.No wind15%30.07 "Hg10 mi
1:30 PM61 °FSunny.7 mph16%30.07 "Hg10 mi
1:00 PM61 °FSunny.No wind16%30.07 "Hg10 mi
12:30 PM59 °FSunny.5 mph18%30.09 "Hg10 mi
12:00 PM55 °FSunny.5 mph21%30.09 "Hg10 mi
11:30 AM55 °FSunny.7 mph21%30.12 "Hg10 mi
11:00 AM54 °FSunny.9 mph22%30.12 "Hg10 mi
10:30 AM52 °FSunny.5 mph24%30.15 "Hg10 mi
9:58 AM50 °FSunny.No wind25%30.15 "Hg10 mi
9:30 AM46 °FSunny.5 mph34%30.18 "Hg10 mi
9:00 AM46 °FSunny.7 mph34%30.18 "Hg10 mi
8:30 AM46 °FSunny.No wind34%30.21 "Hg10 mi
8:00 AM45 °FSunny.5 mph37%30.21 "Hg10 mi
Weather by CustomWeather, © 2014

See weather overviewHow to use our weather pages